Home   Weather   Celle   Past weeks

Flag for Germany Past Weather in Celle, Lower Saxony, Germany — Yesterday and Last 2 Weeks

Now
36 °F

Passing clouds.


Feels Like: 36 °F
Forecast: 34 / 50 °F
Wind: No wind

Location: Celle Airport

Current Time: Apr 28, 2017 at 3:08:32 am

Latest Report: Apr 28, 2017 at 2:20 am


Visibility: N/A

Pressure: 29.95 "Hg

Humidity: 81%

Dew Point: 30 °F

Location of CelleLocation

Past Weather in Celle — Graph

°F

Celle Temperature Yesterday

Maximum temperature yesterday: 52 °F (at 4:20 pm)
Minimum temperature yesterday: 28 °F (at 3:20 am)
Average temperature yesterday: 40 °F

High & Low Weather Summary for the Past Weeks

 TemperatureHumidityPressure
High55 °F (Apr 21, 2:20 pm)100% (Apr 18, 6:20 am)30.63 "Hg (Apr 18, 6:20 am)
Low23 °F (Apr 20, 6:20 am)32% (Apr 20, 2:20 pm)29.62 "Hg (Apr 25, 4:20 am)
Average42 °F70%30.07 "Hg
* Reported Apr 13 1:20 am — Apr 28 1:20 am, Celle, Weather by CustomWeather, © 2017

Note: Actual official high and low records may vary slightly from our data, if they occured in-between our weather recording intervals... More about our weather records

Advertising

Celle Weather History for the Previous 24 Hours

Scroll right to see more
 ConditionsComfort  
Time TempWeatherWind HumidityBarometerVisibility
1:20 am
Fri, Apr 28
37 °FPassing clouds.No wind75%29.95 "HgN/A
12:20 am37 °FPassing clouds.No wind70%29.95 "HgN/A
11:20 pm
Thu, Apr 27
37 °FPassing clouds.No wind70%29.95 "HgN/A
10:20 pm37 °FPassing clouds.1 mph70%29.98 "HgN/A
9:20 pm41 °FPassing clouds.No wind61%29.95 "HgN/A
8:20 pm46 °FPassing clouds.5 mph46%29.95 "HgN/A
7:20 pm50 °FScattered clouds.6 mph35%29.95 "HgN/A
6:20 pm50 °FPassing clouds.13 mph32%29.95 "HgN/A
5:20 pm50 °FScattered clouds.8 mph35%29.95 "HgN/A
4:20 pm52 °FScattered clouds.6 mph32%29.95 "HgN/A
3:20 pm48 °FScattered clouds.10 mph37%29.95 "HgN/A
2:20 pm48 °FScattered clouds.14 mph40%29.95 "HgN/A
1:20 pm48 °FScattered clouds.8 mph46%29.95 "HgN/A
12:20 pm46 °FScattered clouds.8 mph50%29.98 "HgN/A
11:20 am46 °FScattered clouds.8 mph50%29.98 "HgN/A
10:20 am45 °FScattered clouds.7 mph57%29.98 "HgN/A
9:20 am43 °FPassing clouds.6 mph71%29.98 "HgN/A
8:20 am37 °FPassing clouds.5 mph75%29.98 "HgN/A
7:20 am32 °FPassing clouds.2 mph87%29.98 "HgN/A
6:20 am28 °FPassing clouds.2 mph93%29.95 "HgN/A
5:20 am28 °FFog.2 mph93%29.95 "HgN/A
4:20 am28 °FFog.2 mph93%29.95 "HgN/A
3:20 am28 °FFog.2 mph100%29.95 "HgN/A
Weather by CustomWeather, © 2017

See weather overviewHow to use our weather pages